Year,Month,Day,Hour,Minute,Value (Times are PST for temperature in C)
2009,04,28,00,00,7.10
2009,04,28,00,01,7.10
2009,04,28,00,02,7.10
2009,04,28,00,03,7.10
2009,04,28,00,04,7.10
2009,04,28,00,05,7.00
2009,04,28,00,06,7.10
2009,04,28,00,07,7.10
2009,04,28,00,08,7.10
2009,04,28,00,09,7.10
2009,04,28,00,10,7.10
2009,04,28,00,11,7.10
2009,04,28,00,12,7.10
2009,04,28,00,13,7.10
2009,04,28,00,14,7.00
2009,04,28,00,15,7.10
2009,04,28,00,16,7.00
2009,04,28,00,17,7.10
2009,04,28,00,18,7.10
2009,04,28,00,19,7.30
2009,04,28,00,20,7.70
2009,04,28,00,21,8.00
2009,04,28,00,22,8.30
2009,04,28,00,23,8.50
2009,04,28,00,24,8.90
2009,04,28,00,25,9.30
2009,04,28,00,26,9.60
2009,04,28,00,27,9.90
2009,04,28,00,28,10.20
2009,04,28,00,29,10.40
2009,04,28,00,30,10.60
2009,04,28,00,31,10.70
2009,04,28,00,32,10.70
2009,04,28,00,33,10.80
2009,04,28,00,34,10.80
2009,04,28,00,35,10.80
2009,04,28,00,36,10.80
2009,04,28,00,37,10.90
2009,04,28,00,38,10.90
2009,04,28,00,39,11.00
2009,04,28,00,40,11.00
2009,04,28,00,41,10.90
2009,04,28,00,42,10.90
2009,04,28,00,43,10.80
2009,04,28,00,44,10.80
2009,04,28,00,45,10.80
2009,04,28,00,46,10.80
2009,04,28,00,47,10.80
2009,04,28,00,48,10.70
2009,04,28,00,49,10.70
2009,04,28,00,50,10.60
2009,04,28,00,51,10.60
2009,04,28,00,52,10.50
2009,04,28,00,53,10.50
2009,04,28,00,54,10.50
2009,04,28,00,55,10.50
2009,04,28,00,56,10.60
2009,04,28,00,57,10.60
2009,04,28,00,58,10.70
2009,04,28,00,59,10.80
2009,04,28,01,00,10.80
2009,04,28,01,01,10.80
2009,04,28,01,02,10.90
2009,04,28,01,03,11.00
2009,04,28,01,04,11.00
2009,04,28,01,05,11.20
2009,04,28,01,06,11.30
2009,04,28,01,07,11.50
2009,04,28,01,08,11.60
2009,04,28,01,09,11.70
2009,04,28,01,10,11.80
2009,04,28,01,11,11.80
2009,04,28,01,12,11.90
2009,04,28,01,13,11.90
2009,04,28,01,14,11.90
2009,04,28,01,15,11.90
2009,04,28,01,16,11.90
2009,04,28,01,17,12.10
2009,04,28,01,18,12.20
2009,04,28,01,19,12.40
2009,04,28,01,20,12.60
2009,04,28,01,21,12.70
2009,04,28,01,22,12.70
2009,04,28,01,23,12.70
2009,04,28,01,24,12.80
2009,04,28,01,25,12.80
2009,04,28,01,26,12.80
2009,04,28,01,27,12.80
2009,04,28,01,28,12.80
2009,04,28,01,29,12.70
2009,04,28,01,30,12.70
2009,04,28,01,31,12.60
2009,04,28,01,32,12.70
2009,04,28,01,33,12.70
2009,04,28,01,34,12.70
2009,04,28,01,35,12.60
2009,04,28,01,36,12.50
2009,04,28,01,37,12.40
2009,04,28,01,38,12.40
2009,04,28,01,39,12.40
2009,04,28,01,40,12.30
2009,04,28,01,41,12.20
2009,04,28,01,42,12.20
2009,04,28,01,43,12.10
2009,04,28,01,44,12.00
2009,04,28,01,45,11.90
2009,04,28,01,46,11.80
2009,04,28,01,47,11.70
2009,04,28,01,48,11.60
2009,04,28,01,49,11.50
2009,04,28,01,50,11.40
2009,04,28,01,51,11.20
2009,04,28,01,52,11.10
2009,04,28,01,53,11.00
2009,04,28,01,54,10.90
2009,04,28,01,55,10.80
2009,04,28,01,56,10.70
2009,04,28,01,57,10.60
2009,04,28,01,58,10.60
2009,04,28,01,59,10.50
2009,04,28,02,00,10.40
2009,04,28,02,01,10.30
2009,04,28,02,02,10.20
2009,04,28,02,03,10.10
2009,04,28,02,04,10.10
2009,04,28,02,05,10.00
2009,04,28,02,06,9.90
2009,04,28,02,07,9.80
2009,04,28,02,08,9.70
2009,04,28,02,09,9.60
2009,04,28,02,10,9.60
2009,04,28,02,11,9.50
2009,04,28,02,12,9.40
2009,04,28,02,13,9.40
2009,04,28,02,14,9.30
2009,04,28,02,15,9.20
2009,04,28,02,16,9.10
2009,04,28,02,17,9.10
2009,04,28,02,18,9.00
2009,04,28,02,19,8.90
2009,04,28,02,20,8.90
2009,04,28,02,21,8.80
2009,04,28,02,22,8.80
2009,04,28,02,23,8.70
2009,04,28,02,24,8.70
2009,04,28,02,25,8.70
2009,04,28,02,26,8.70
2009,04,28,02,27,8.60
2009,04,28,02,28,8.60
2009,04,28,02,29,8.60
2009,04,28,02,30,8.50
2009,04,28,02,31,8.50
2009,04,28,02,32,8.50
2009,04,28,02,33,8.50
2009,04,28,02,34,8.40
2009,04,28,02,35,8.30
2009,04,28,02,36,8.30
2009,04,28,02,37,8.30
2009,04,28,02,38,8.30
2009,04,28,02,39,8.30
2009,04,28,02,40,8.30
2009,04,28,02,41,8.30
2009,04,28,02,42,8.30
2009,04,28,02,43,8.30
2009,04,28,02,44,8.20
2009,04,28,02,45,8.20
2009,04,28,02,46,8.20
2009,04,28,02,47,8.10
2009,04,28,02,48,8.10
2009,04,28,02,49,8.00
2009,04,28,02,50,8.00
2009,04,28,02,51,7.90
2009,04,28,02,52,7.90
2009,04,28,02,53,7.90
2009,04,28,02,54,7.80
2009,04,28,02,55,7.80
2009,04,28,02,56,7.70
2009,04,28,02,57,7.70
2009,04,28,02,58,7.70
2009,04,28,02,59,7.60
2009,04,28,03,00,7.60
2009,04,28,03,01,7.50
2009,04,28,03,02,7.50
2009,04,28,03,03,7.40
2009,04,28,03,04,7.40
2009,04,28,03,05,7.40
2009,04,28,03,06,7.30
2009,04,28,03,07,7.30
2009,04,28,03,08,7.30
2009,04,28,03,09,7.30
2009,04,28,03,10,7.30
2009,04,28,03,11,7.30
2009,04,28,03,12,7.30
2009,04,28,03,13,7.30
2009,04,28,03,14,7.20
2009,04,28,03,15,7.20
2009,04,28,03,16,7.20
2009,04,28,03,17,7.20
2009,04,28,03,18,7.20
2009,04,28,03,19,7.20
2009,04,28,03,20,7.20
2009,04,28,03,21,7.20
2009,04,28,03,22,7.10
2009,04,28,03,23,7.10
2009,04,28,03,24,7.10
2009,04,28,03,25,7.10
2009,04,28,03,26,7.10
2009,04,28,03,27,7.10
2009,04,28,03,28,7.10
2009,04,28,03,29,7.10
2009,04,28,03,30,7.00
2009,04,28,03,31,7.00
2009,04,28,03,32,6.90
2009,04,28,03,33,6.90
2009,04,28,03,34,6.90
2009,04,28,03,35,6.80
2009,04,28,03,36,6.80
2009,04,28,03,37,6.80
2009,04,28,03,38,6.80
2009,04,28,03,39,6.70
2009,04,28,03,40,6.70
2009,04,28,03,41,6.60
2009,04,28,03,42,6.60
2009,04,28,03,43,6.60
2009,04,28,03,44,6.60
2009,04,28,03,45,6.60
2009,04,28,03,46,6.50
2009,04,28,03,47,6.50
2009,04,28,03,48,6.50
2009,04,28,03,49,6.40
2009,04,28,03,50,6.40
2009,04,28,03,51,6.40
2009,04,28,03,52,6.40
2009,04,28,03,53,6.40
2009,04,28,03,54,6.40
2009,04,28,03,55,6.40
2009,04,28,03,56,6.40
2009,04,28,03,57,6.30
2009,04,28,03,58,6.30
2009,04,28,03,59,6.40
2009,04,28,04,00,6.40
2009,04,28,04,01,6.40
2009,04,28,04,02,6.30
2009,04,28,04,03,6.40
2009,04,28,04,04,6.40
2009,04,28,04,05,6.30
2009,04,28,04,06,6.30
2009,04,28,04,07,6.30
2009,04,28,04,08,6.30
2009,04,28,04,09,6.30
2009,04,28,04,10,6.30
2009,04,28,04,11,6.30
2009,04,28,04,12,6.30
2009,04,28,04,13,6.30
2009,04,28,04,14,6.20
2009,04,28,04,15,6.10
2009,04,28,04,16,6.10
2009,04,28,04,17,6.00
2009,04,28,04,18,5.90
2009,04,28,04,19,5.90
2009,04,28,04,20,5.90
2009,04,28,04,21,5.90
2009,04,28,04,22,5.90
2009,04,28,04,23,5.90
2009,04,28,04,24,5.80
2009,04,28,04,25,5.80
2009,04,28,04,26,5.80
2009,04,28,04,27,5.80
2009,04,28,04,28,5.80
2009,04,28,04,29,5.70
2009,04,28,04,30,5.70
2009,04,28,04,31,5.70
2009,04,28,04,32,5.70
2009,04,28,04,33,5.70
2009,04,28,04,34,5.70
2009,04,28,04,35,5.70
2009,04,28,04,36,5.70
2009,04,28,04,37,5.70
2009,04,28,04,38,5.70
2009,04,28,04,39,5.70
2009,04,28,04,40,5.60
2009,04,28,04,41,5.60
2009,04,28,04,42,5.60
2009,04,28,04,43,5.60
2009,04,28,04,44,5.60
2009,04,28,04,45,5.60
2009,04,28,04,46,5.60
2009,04,28,04,47,5.50
2009,04,28,04,48,5.50
2009,04,28,04,49,5.50
2009,04,28,04,50,5.50
2009,04,28,04,51,5.40
2009,04,28,04,52,5.40
2009,04,28,04,53,5.40
2009,04,28,04,54,5.40
2009,04,28,04,55,5.50
2009,04,28,04,56,5.50
2009,04,28,04,57,5.50
2009,04,28,04,58,5.60
2009,04,28,04,59,5.50
2009,04,28,05,00,5.50
2009,04,28,05,01,5.50
2009,04,28,05,02,5.50
2009,04,28,05,03,5.40
2009,04,28,05,04,5.40
2009,04,28,05,05,5.40
2009,04,28,05,06,5.40
2009,04,28,05,07,5.40
2009,04,28,05,08,5.40
2009,04,28,05,09,5.40
2009,04,28,05,10,5.40
2009,04,28,05,11,5.40
2009,04,28,05,12,5.50
2009,04,28,05,13,5.50
2009,04,28,05,14,5.50
2009,04,28,05,15,5.50
2009,04,28,05,16,5.50
2009,04,28,05,17,5.40
2009,04,28,05,18,5.40
2009,04,28,05,19,5.40
2009,04,28,05,20,5.40
2009,04,28,05,21,5.40
2009,04,28,05,22,5.40
2009,04,28,05,23,5.40
2009,04,28,05,24,5.40
2009,04,28,05,25,5.40
2009,04,28,05,26,5.40
2009,04,28,05,27,5.40
2009,04,28,05,28,5.40
2009,04,28,05,29,5.40
2009,04,28,05,30,5.40
2009,04,28,05,31,5.40
2009,04,28,05,32,5.40
2009,04,28,05,33,5.40
2009,04,28,05,34,5.40
2009,04,28,05,35,5.40
2009,04,28,05,36,5.40
2009,04,28,05,37,5.40
2009,04,28,05,38,5.40
2009,04,28,05,39,5.40
2009,04,28,05,40,5.40
2009,04,28,05,41,5.40
2009,04,28,05,42,5.40
2009,04,28,05,43,5.40
2009,04,28,05,44,5.40
2009,04,28,05,45,5.40
2009,04,28,05,46,5.30
2009,04,28,05,47,5.30
2009,04,28,05,48,5.30
2009,04,28,05,49,5.30
2009,04,28,05,50,5.30
2009,04,28,05,51,5.40
2009,04,28,05,52,5.40
2009,04,28,05,53,5.40
2009,04,28,05,54,5.40
2009,04,28,05,55,5.40
2009,04,28,05,56,5.40
2009,04,28,05,57,5.40
2009,04,28,05,58,5.40
2009,04,28,05,59,5.40
2009,04,28,06,00,5.40
2009,04,28,06,01,5.40
2009,04,28,06,02,5.50
2009,04,28,06,03,5.50
2009,04,28,06,04,5.50
2009,04,28,06,05,5.50
2009,04,28,06,06,5.50
2009,04,28,06,07,5.50
2009,04,28,06,08,5.50
2009,04,28,06,09,5.50
2009,04,28,06,10,5.50
2009,04,28,06,11,5.60
2009,04,28,06,12,5.60
2009,04,28,06,13,5.70
2009,04,28,06,14,5.70
2009,04,28,06,15,5.70
2009,04,28,06,16,5.70
2009,04,28,06,17,5.70
2009,04,28,06,18,5.70
2009,04,28,06,19,5.70
2009,04,28,06,20,5.60
2009,04,28,06,21,5.70
2009,04,28,06,22,5.60
2009,04,28,06,23,5.60
2009,04,28,06,24,5.60
2009,04,28,06,25,5.60
2009,04,28,06,26,5.70
2009,04,28,06,27,5.70
2009,04,28,06,28,5.70
2009,04,28,06,29,5.70
2009,04,28,06,30,5.70
2009,04,28,06,31,5.70
2009,04,28,06,32,5.70
2009,04,28,06,33,5.70
2009,04,28,06,34,5.70
2009,04,28,06,35,5.70
2009,04,28,06,36,5.70
2009,04,28,06,37,5.70
2009,04,28,06,38,5.70
2009,04,28,06,39,5.70
2009,04,28,06,40,5.70
2009,04,28,06,41,5.70
2009,04,28,06,42,5.70
2009,04,28,06,43,5.70
2009,04,28,06,44,5.80
2009,04,28,06,45,5.80
2009,04,28,06,46,5.80
2009,04,28,06,47,5.80
2009,04,28,06,48,5.80
2009,04,28,06,49,5.80
2009,04,28,06,50,5.90
2009,04,28,06,51,5.90
2009,04,28,06,52,5.90
2009,04,28,06,53,6.00
2009,04,28,06,54,6.00
2009,04,28,06,55,6.00
2009,04,28,06,56,6.10
2009,04,28,06,57,6.10
2009,04,28,06,58,6.10
2009,04,28,06,59,6.10
2009,04,28,07,00,6.10
2009,04,28,07,01,6.10
2009,04,28,07,02,6.20
2009,04,28,07,03,6.20
2009,04,28,07,04,6.20
2009,04,28,07,05,6.20
2009,04,28,07,06,6.20
2009,04,28,07,07,6.30
2009,04,28,07,08,6.30
2009,04,28,07,09,6.30
2009,04,28,07,10,6.30
2009,04,28,07,11,6.30
2009,04,28,07,12,6.40
2009,04,28,07,13,6.40
2009,04,28,07,14,6.40
2009,04,28,07,15,6.40
2009,04,28,07,16,6.50
2009,04,28,07,17,6.50
2009,04,28,07,18,6.60
2009,04,28,07,19,6.60
2009,04,28,07,20,6.60
2009,04,28,07,21,6.70
2009,04,28,07,22,6.70
2009,04,28,07,23,6.70
2009,04,28,07,24,6.70
2009,04,28,07,25,6.70
2009,04,28,07,26,6.70
2009,04,28,07,27,6.80
2009,04,28,07,28,6.80
2009,04,28,07,29,6.80
2009,04,28,07,30,6.80
2009,04,28,07,31,6.80
2009,04,28,07,32,6.90
2009,04,28,07,33,6.90
2009,04,28,07,34,7.00
2009,04,28,07,35,7.00
2009,04,28,07,36,7.10
2009,04,28,07,37,7.10
2009,04,28,07,38,7.20
2009,04,28,07,39,7.20
2009,04,28,07,40,7.20
2009,04,28,07,41,7.20
2009,04,28,07,42,7.30
2009,04,28,07,43,7.30
2009,04,28,07,44,7.30
2009,04,28,07,45,7.40
2009,04,28,07,46,7.40
2009,04,28,07,47,7.40
2009,04,28,07,48,7.40
2009,04,28,07,49,7.40
2009,04,28,07,50,7.50
2009,04,28,07,51,7.50
2009,04,28,07,52,7.50
2009,04,28,07,53,7.60
2009,04,28,07,54,7.60
2009,04,28,07,55,7.70
2009,04,28,07,56,7.70
2009,04,28,07,57,7.70
2009,04,28,07,58,7.70
2009,04,28,07,59,7.80
2009,04,28,08,00,7.80
2009,04,28,08,01,7.80
2009,04,28,08,02,7.90
2009,04,28,08,03,7.90
2009,04,28,08,04,8.00
2009,04,28,08,05,8.00
2009,04,28,08,06,8.10
2009,04,28,08,07,8.10
2009,04,28,08,08,8.10
2009,04,28,08,09,8.20
2009,04,28,08,10,8.20
2009,04,28,08,11,8.20
2009,04,28,08,12,8.30
2009,04,28,08,13,8.30
2009,04,28,08,14,8.30
2009,04,28,08,15,8.40
2009,04,28,08,16,8.40
2009,04,28,08,17,8.40
2009,04,28,08,18,8.50
2009,04,28,08,19,8.60
2009,04,28,08,20,8.60
2009,04,28,08,21,8.70
2009,04,28,08,22,8.70
2009,04,28,08,23,8.80
2009,04,28,08,24,8.80
2009,04,28,08,25,8.80
2009,04,28,08,26,8.90
2009,04,28,08,27,8.90
2009,04,28,08,28,9.00
2009,04,28,08,29,9.00
2009,04,28,08,30,9.10
2009,04,28,08,31,9.10
2009,04,28,08,32,9.10
2009,04,28,08,33,9.20
2009,04,28,08,34,9.20
2009,04,28,08,35,9.30
2009,04,28,08,36,9.30
2009,04,28,08,37,9.40
2009,04,28,08,38,9.40
2009,04,28,08,39,9.50
2009,04,28,08,40,9.50
2009,04,28,08,41,9.60
2009,04,28,08,42,9.60
2009,04,28,08,43,9.70
2009,04,28,08,44,9.70
2009,04,28,08,45,9.70
2009,04,28,08,46,9.80
2009,04,28,08,47,9.80
2009,04,28,08,48,9.90
2009,04,28,08,49,9.90
2009,04,28,08,50,10.00
2009,04,28,08,51,10.00
2009,04,28,08,52,10.10
2009,04,28,08,53,10.10
2009,04,28,08,54,10.10
2009,04,28,08,55,10.20
2009,04,28,08,56,10.20
2009,04,28,08,57,10.20
2009,04,28,08,58,10.20
2009,04,28,08,59,10.30
2009,04,28,09,00,10.30
2009,04,28,09,01,10.40
2009,04,28,09,02,10.40
2009,04,28,09,03,10.50
2009,04,28,09,04,10.50
2009,04,28,09,05,10.60
2009,04,28,09,06,10.60
2009,04,28,09,07,10.60
2009,04,28,09,08,10.70
2009,04,28,09,09,10.80
2009,04,28,09,10,10.90
2009,04,28,09,11,11.00
2009,04,28,09,12,11.10
2009,04,28,09,13,11.20
2009,04,28,09,14,11.40
2009,04,28,09,15,11.40
2009,04,28,09,16,11.60
2009,04,28,09,17,11.70
2009,04,28,09,18,11.90
2009,04,28,09,19,11.90
2009,04,28,09,20,12.00
2009,04,28,09,21,12.10
2009,04,28,09,22,12.20
2009,04,28,09,23,12.20
2009,04,28,09,24,12.30
2009,04,28,09,25,12.30
2009,04,28,09,26,12.30
2009,04,28,09,27,12.30
2009,04,28,09,28,12.40
2009,04,28,09,29,12.40
2009,04,28,09,30,12.50
2009,04,28,09,31,12.50
2009,04,28,09,32,12.50
2009,04,28,09,33,12.60
2009,04,28,09,34,12.60
2009,04,28,09,35,12.60
2009,04,28,09,36,12.60
2009,04,28,09,37,12.60
2009,04,28,09,38,12.60
2009,04,28,09,39,12.60
2009,04,28,09,40,12.70
2009,04,28,09,41,12.70
2009,04,28,09,42,12.70
2009,04,28,09,43,12.70
2009,04,28,09,44,12.80
2009,04,28,09,45,12.80
2009,04,28,09,46,12.90
2009,04,28,09,47,13.00
2009,04,28,09,48,13.00
2009,04,28,09,49,13.10
2009,04,28,09,50,13.20
2009,04,28,09,51,13.30
2009,04,28,09,52,13.30
2009,04,28,09,53,13.30
2009,04,28,09,54,13.30
2009,04,28,09,55,13.30
2009,04,28,09,56,13.30
2009,04,28,09,57,13.40
2009,04,28,09,58,13.40
2009,04,28,09,59,13.40
2009,04,28,10,00,13.40
2009,04,28,10,01,13.40
2009,04,28,10,02,13.40
2009,04,28,10,03,13.40
2009,04,28,10,04,13.40
2009,04,28,10,05,13.40
2009,04,28,10,06,13.40
2009,04,28,10,07,13.40
2009,04,28,10,08,13.50
2009,04,28,10,09,13.50
2009,04,28,10,10,13.40
2009,04,28,10,11,13.50
2009,04,28,10,12,13.60
2009,04,28,10,13,13.60
2009,04,28,10,14,13.60
2009,04,28,10,15,13.70
2009,04,28,10,16,13.70
2009,04,28,10,17,13.70
2009,04,28,10,18,13.70
2009,04,28,10,19,13.70
2009,04,28,10,20,13.70
2009,04,28,10,21,13.70
2009,04,28,10,22,13.70
2009,04,28,10,23,13.70
2009,04,28,10,24,13.60
2009,04,28,10,25,13.60
2009,04,28,10,26,13.60
2009,04,28,10,27,13.60
2009,04,28,10,28,13.60
2009,04,28,10,29,13.70
2009,04,28,10,30,13.70
2009,04,28,10,31,13.70
2009,04,28,10,32,13.80
2009,04,28,10,33,13.80
2009,04,28,10,34,13.90
2009,04,28,10,35,14.00
2009,04,28,10,36,14.00
2009,04,28,10,37,14.00
2009,04,28,10,38,14.10
2009,04,28,10,39,14.10
2009,04,28,10,40,14.00
2009,04,28,10,41,14.00
2009,04,28,10,42,13.90
2009,04,28,10,43,13.90
2009,04,28,10,44,13.90
2009,04,28,10,45,14.00
2009,04,28,10,46,14.00
2009,04,28,10,47,14.10
2009,04,28,10,48,14.10
2009,04,28,10,49,14.00
2009,04,28,10,50,14.00
2009,04,28,10,51,13.90
2009,04,28,10,52,13.90
2009,04,28,10,53,13.80
2009,04,28,10,54,13.90
2009,04,28,10,55,13.90
2009,04,28,10,56,14.00
2009,04,28,10,57,14.10
2009,04,28,10,58,14.10
2009,04,28,10,59,14.10
2009,04,28,11,00,14.10
2009,04,28,11,01,14.10
2009,04,28,11,02,14.20
2009,04,28,11,03,14.20
2009,04,28,11,04,14.20
2009,04,28,11,05,14.20
2009,04,28,11,06,14.20
2009,04,28,11,07,14.20
2009,04,28,11,08,14.20
2009,04,28,11,09,14.30
2009,04,28,11,10,14.30
2009,04,28,11,11,14.20
2009,04,28,11,12,14.30
2009,04,28,11,13,14.30
2009,04,28,11,14,14.30
2009,04,28,11,15,14.30
2009,04,28,11,16,14.40
2009,04,28,11,17,14.50
2009,04,28,11,18,14.60
2009,04,28,11,19,14.60
2009,04,28,11,20,14.70
2009,04,28,11,21,14.80
2009,04,28,11,22,14.90
2009,04,28,11,23,15.00
2009,04,28,11,24,15.00
2009,04,28,11,25,15.00
2009,04,28,11,26,14.80
2009,04,28,11,27,14.60
2009,04,28,11,28,14.40
2009,04,28,11,29,14.30
2009,04,28,11,30,14.30
2009,04,28,11,31,14.20
2009,04,28,11,32,14.20
2009,04,28,11,33,14.20
2009,04,28,11,34,14.10
2009,04,28,11,35,14.10
2009,04,28,11,36,14.10
2009,04,28,11,37,14.20
2009,04,28,11,38,14.20
2009,04,28,11,39,14.30
2009,04,28,11,40,14.40
2009,04,28,11,41,14.40
2009,04,28,11,42,14.50
2009,04,28,11,43,14.50
2009,04,28,11,44,14.40
2009,04,28,11,45,14.40
2009,04,28,11,46,14.30
2009,04,28,11,47,14.20
2009,04,28,11,48,14.20
2009,04,28,11,49,14.20
2009,04,28,11,50,14.10
2009,04,28,11,51,14.10
2009,04,28,11,52,14.00
2009,04,28,11,53,14.00
2009,04,28,11,54,14.00
2009,04,28,11,55,14.00
2009,04,28,11,56,14.10
2009,04,28,11,57,14.10
2009,04,28,11,58,14.10
2009,04,28,11,59,14.20
2009,04,28,12,00,14.20
2009,04,28,12,01,14.30
2009,04,28,12,02,14.40
2009,04,28,12,03,14.40
2009,04,28,12,04,14.50
2009,04,28,12,05,14.60
2009,04,28,12,06,14.60
2009,04,28,12,07,14.60
2009,04,28,12,08,14.60
2009,04,28,12,09,14.60
2009,04,28,12,10,14.60
2009,04,28,12,11,14.60
2009,04,28,12,12,14.60
2009,04,28,12,13,14.70
2009,04,28,12,14,14.70
2009,04,28,12,15,14.80
2009,04,28,12,16,14.80
2009,04,28,12,17,14.90
2009,04,28,12,18,15.00
2009,04,28,12,19,15.00
2009,04,28,12,20,15.00
2009,04,28,12,21,15.10
2009,04,28,12,22,15.20
2009,04,28,12,23,15.20
2009,04,28,12,24,15.20
2009,04,28,12,25,15.20
2009,04,28,12,26,15.10
2009,04,28,12,27,15.10
2009,04,28,12,28,15.10
2009,04,28,12,29,15.10
2009,04,28,12,30,15.20
2009,04,28,12,31,15.20
2009,04,28,12,32,15.30
2009,04,28,12,33,15.40
2009,04,28,12,34,15.40
2009,04,28,12,35,15.40
2009,04,28,12,36,15.30
2009,04,28,12,37,15.20
2009,04,28,12,38,15.10
2009,04,28,12,39,15.00
2009,04,28,12,40,15.00
2009,04,28,12,41,15.00
2009,04,28,12,42,15.00
2009,04,28,12,43,14.90
2009,04,28,12,44,14.90
2009,04,28,12,45,14.90
2009,04,28,12,46,14.90
2009,04,28,12,47,14.90
2009,04,28,12,48,14.80
2009,04,28,12,49,14.80
2009,04,28,12,50,14.90
2009,04,28,12,51,14.80
2009,04,28,12,52,14.80
2009,04,28,12,53,14.80
2009,04,28,12,54,14.80
2009,04,28,12,55,14.80
2009,04,28,12,56,14.80
2009,04,28,12,57,14.80
2009,04,28,12,58,14.90
2009,04,28,12,59,14.90
2009,04,28,13,00,14.90
2009,04,28,13,01,14.90
2009,04,28,13,02,14.90
2009,04,28,13,03,15.00
2009,04,28,13,04,15.00
2009,04,28,13,05,15.00
2009,04,28,13,06,15.00
2009,04,28,13,07,15.00
2009,04,28,13,08,15.00
2009,04,28,13,09,15.00
2009,04,28,13,10,15.00
2009,04,28,13,11,15.00
2009,04,28,13,12,15.00
2009,04,28,13,13,15.20
2009,04,28,13,14,15.30
2009,04,28,13,15,15.40
2009,04,28,13,16,15.50
2009,04,28,13,17,15.60
2009,04,28,13,18,15.60
2009,04,28,13,19,15.70
2009,04,28,13,20,15.70
2009,04,28,13,21,15.70
2009,04,28,13,22,15.60
2009,04,28,13,23,15.60
2009,04,28,13,24,15.60
2009,04,28,13,25,15.60
2009,04,28,13,26,15.50
2009,04,28,13,27,15.50
2009,04,28,13,28,15.40
2009,04,28,13,29,15.40
2009,04,28,13,30,15.30
2009,04,28,13,31,15.30
2009,04,28,13,32,15.30
2009,04,28,13,33,15.30
2009,04,28,13,34,15.30
2009,04,28,13,35,15.30
2009,04,28,13,36,15.30
2009,04,28,13,37,15.30
2009,04,28,13,38,15.30
2009,04,28,13,39,15.20
2009,04,28,13,40,15.20
2009,04,28,13,41,15.20
2009,04,28,13,42,15.20
2009,04,28,13,43,15.10
2009,04,28,13,44,15.00
2009,04,28,13,45,15.00
2009,04,28,13,46,15.00
2009,04,28,13,47,15.00
2009,04,28,13,48,15.00
2009,04,28,13,49,15.00
2009,04,28,13,50,15.00
2009,04,28,13,51,15.00
2009,04,28,13,52,15.10
2009,04,28,13,53,15.20
2009,04,28,13,54,15.30
2009,04,28,13,55,15.30
2009,04,28,13,56,15.30
2009,04,28,13,57,15.30
2009,04,28,13,58,15.30
2009,04,28,13,59,15.40
2009,04,28,14,00,15.40
2009,04,28,14,01,15.40
2009,04,28,14,02,15.50
2009,04,28,14,03,15.50
2009,04,28,14,04,15.60
2009,04,28,14,05,15.70
2009,04,28,14,06,15.80
2009,04,28,14,07,15.80
2009,04,28,14,08,15.80
2009,04,28,14,09,15.80
2009,04,28,14,10,15.90
2009,04,28,14,11,15.90
2009,04,28,14,12,15.90
2009,04,28,14,13,15.90
2009,04,28,14,14,15.90
2009,04,28,14,15,16.00
2009,04,28,14,16,15.90
2009,04,28,14,17,15.90
2009,04,28,14,18,15.90
2009,04,28,14,19,15.90
2009,04,28,14,20,16.00
2009,04,28,14,21,15.90
2009,04,28,14,22,15.90
2009,04,28,14,23,15.80
2009,04,28,14,24,15.80
2009,04,28,14,25,15.90
2009,04,28,14,26,16.00
2009,04,28,14,27,16.10
2009,04,28,14,28,16.20
2009,04,28,14,29,16.20
2009,04,28,14,30,16.10
2009,04,28,14,31,16.00
2009,04,28,14,32,16.00
2009,04,28,14,33,15.80
2009,04,28,14,34,15.70
2009,04,28,14,35,15.70
2009,04,28,14,36,15.70
2009,04,28,14,37,15.70
2009,04,28,14,38,15.70
2009,04,28,14,39,15.80
2009,04,28,14,40,15.80
2009,04,28,14,41,15.90
2009,04,28,14,42,15.90
2009,04,28,14,43,15.90
2009,04,28,14,44,16.00
2009,04,28,14,45,16.00
2009,04,28,14,46,16.10
2009,04,28,14,47,16.00
2009,04,28,14,48,16.00
2009,04,28,14,49,16.00
2009,04,28,14,50,15.90
2009,04,28,14,51,15.80
2009,04,28,14,52,15.80
2009,04,28,14,53,15.80
2009,04,28,14,54,15.80
2009,04,28,14,55,15.80
2009,04,28,14,56,15.90
2009,04,28,14,57,16.00
2009,04,28,14,58,16.10
2009,04,28,14,59,16.10
2009,04,28,15,00,16.10
2009,04,28,15,01,16.10
2009,04,28,15,02,16.10
2009,04,28,15,03,16.10
2009,04,28,15,04,16.00
2009,04,28,15,05,16.10
2009,04,28,15,06,16.10
2009,04,28,15,07,16.10
2009,04,28,15,08,16.10
2009,04,28,15,09,16.10
2009,04,28,15,10,16.10
2009,04,28,15,11,16.20
2009,04,28,15,12,16.20
2009,04,28,15,13,16.30
2009,04,28,15,14,16.40
2009,04,28,15,15,16.50
2009,04,28,15,16,16.50
2009,04,28,15,17,16.60
2009,04,28,15,18,16.70
2009,04,28,15,19,16.70
2009,04,28,15,20,16.70
2009,04,28,15,21,16.70
2009,04,28,15,22,16.80
2009,04,28,15,23,16.80
2009,04,28,15,24,16.90
2009,04,28,15,25,16.90
2009,04,28,15,26,17.00
2009,04,28,15,27,17.00
2009,04,28,15,28,16.90
2009,04,28,15,29,16.90
2009,04,28,15,30,16.90
2009,04,28,15,31,16.80
2009,04,28,15,32,16.80
2009,04,28,15,33,16.80
2009,04,28,15,34,16.90
2009,04,28,15,35,16.90
2009,04,28,15,36,16.90
2009,04,28,15,37,16.80
2009,04,28,15,38,16.80
2009,04,28,15,39,16.80
2009,04,28,15,40,16.80
2009,04,28,15,41,16.90
2009,04,28,15,42,16.90
2009,04,28,15,43,16.90
2009,04,28,15,44,16.90
2009,04,28,15,45,16.90
2009,04,28,15,46,16.80
2009,04,28,15,47,16.80
2009,04,28,15,48,16.70
2009,04,28,15,49,16.60
2009,04,28,15,50,16.60
2009,04,28,15,51,16.50
2009,04,28,15,52,16.40
2009,04,28,15,53,16.30
2009,04,28,15,54,16.20
2009,04,28,15,55,16.20
2009,04,28,15,56,16.20
2009,04,28,15,57,16.30
2009,04,28,15,58,16.30
2009,04,28,15,59,16.30
2009,04,28,16,00,16.30
2009,04,28,16,01,16.30
2009,04,28,16,02,16.30
2009,04,28,16,03,16.20
2009,04,28,16,04,16.00
2009,04,28,16,05,15.80
2009,04,28,16,06,15.60
2009,04,28,16,07,15.40
2009,04,28,16,08,15.20
2009,04,28,16,09,15.20
2009,04,28,16,10,15.20
2009,04,28,16,11,15.10
2009,04,28,16,12,15.10
2009,04,28,16,13,15.00
2009,04,28,16,14,15.00
2009,04,28,16,15,14.90
2009,04,28,16,16,14.80
2009,04,28,16,17,14.90
2009,04,28,16,18,15.00
2009,04,28,16,19,15.00
2009,04,28,16,20,15.00
2009,04,28,16,21,15.00
2009,04,28,16,22,15.00
2009,04,28,16,23,15.10
2009,04,28,16,24,15.20
2009,04,28,16,25,15.30
2009,04,28,16,26,15.40
2009,04,28,16,27,15.50
2009,04,28,16,28,15.60
2009,04,28,16,29,15.80
2009,04,28,16,30,15.90
2009,04,28,16,31,15.90
2009,04,28,16,32,15.90
2009,04,28,16,33,16.00
2009,04,28,16,34,16.00
2009,04,28,16,35,16.00
2009,04,28,16,36,16.00
2009,04,28,16,37,16.00
2009,04,28,16,38,16.00
2009,04,28,16,39,16.00
2009,04,28,16,40,16.00
2009,04,28,16,41,16.00
2009,04,28,16,42,16.10
2009,04,28,16,43,16.20
2009,04,28,16,44,16.30
2009,04,28,16,45,16.40
2009,04,28,16,46,16.40
2009,04,28,16,47,16.50
2009,04,28,16,48,16.50
2009,04,28,16,49,16.50
2009,04,28,16,50,16.50
2009,04,28,16,51,16.40
2009,04,28,16,52,16.40
2009,04,28,16,53,16.40
2009,04,28,16,54,16.30
2009,04,28,16,55,16.30
2009,04,28,16,56,16.40
2009,04,28,16,57,16.40
2009,04,28,16,58,16.40
2009,04,28,16,59,16.50
2009,04,28,17,00,16.50
2009,04,28,17,01,16.60
2009,04,28,17,02,16.60
2009,04,28,17,03,16.70
2009,04,28,17,04,16.70
2009,04,28,17,05,16.80
2009,04,28,17,06,16.80
2009,04,28,17,07,16.80
2009,04,28,17,08,16.80
2009,04,28,17,09,16.70
2009,04,28,17,10,16.70
2009,04,28,17,11,16.60
2009,04,28,17,12,16.50
2009,04,28,17,13,16.40
2009,04,28,17,14,16.30
2009,04,28,17,15,16.20
2009,04,28,17,16,16.10
2009,04,28,17,17,16.00
2009,04,28,17,18,15.90
2009,04,28,17,19,15.80
2009,04,28,17,20,15.70
2009,04,28,17,21,15.70
2009,04,28,17,22,15.80
2009,04,28,17,23,15.70
2009,04,28,17,24,15.70
2009,04,28,17,25,15.70
2009,04,28,17,26,15.70
2009,04,28,17,27,15.70
2009,04,28,17,28,15.70
2009,04,28,17,29,15.60
2009,04,28,17,30,15.60
2009,04,28,17,31,15.60
2009,04,28,17,32,15.60
2009,04,28,17,33,15.50
2009,04,28,17,34,15.40
2009,04,28,17,35,15.50
2009,04,28,17,36,15.50
2009,04,28,17,37,15.60
2009,04,28,17,38,15.60